Покровка

Kyrgyzstan     42˚19′58″N   78˚01′01″E
temp.,
°C
wind,
m/s
gust,
m/s
humid.,
%
clouds,
%
prec.,
mm/h
press.,
hPa
HPBL,
m
28 november, sat
sat2800:00−1˚s2360100 0.1 102535
03:00−2˚s1261100 0.1 102424
06:00−2˚ssw2260100 0.2 102327
09:00sse2354100 0.0 102127
12:00ssw1278100 0.1 1023127
15:00−2˚wsw1294100 1.6 1029189
18:00−7˚sw236167 1.6 103649
21:00−9˚s117461 0.1 103949
29 november, sun
sun2900:00−10˚s445856 0.1 104033
03:00−11˚s33588 0.0 104029
06:00−10˚s347125 0.2 104135
09:00−10˚s3473100 0.4 104145
12:00−7˚nw2291100 0.4 1037254
15:00−7˚nnw229699 0.2 1036207
18:00−10˚s229499 0.6 104030
21:00−10˚s446295 0.1 104130
30 november, mon
mon3000:00−11˚s555779 0.1 104153
03:00−11˚s555260 0.0 104146
06:00−11˚s555031 0.0 104164
09:00−10˚s555410 0.0 104151
12:00−6˚wnw12748 0.0 1036274
15:00−7˚wnw118647 0.0 1035177
18:00−10˚s555331 0.0 103832
21:00−9˚s66450 0.0 103837
1 december, tue
tue100:00−9˚s66414 0.0 103735
03:00−9˚s664172 0.0 103637
06:00−9˚s453985 0.0 103531
09:00−8˚s4442100 0.0 103431
12:00−5˚w1158100 0.0 1030119
15:00−5˚n017689 0.0 102778
18:00−8˚s115295 0.0 103025
21:00−6˚s2248100 0.0 103228
2 december, wed
wed200:00−6˚s1254100 0.0 103328
03:00−6˚s445997 0.0 103429
06:00−6˚s446194 0.0 103334
09:00−4˚s2374100 0.1 103441
12:00−2˚nw1182100 0.3 1031142
15:00−2˚ne1185100 0.1 1029115
18:00−5˚s226988 0.1 103126
21:00−5˚s336199 0.0 103228